Location: Bassano
(45.7667°N, 11.7333°E)
Time: 19:46:36
(UTC+00:00)

USA 229 - Pass Details

Date: 07 June 2020
Orbit: 980 x 1233 km, 63.4° (Epoch: 24 June)

Event Time Altitude Azimuth Distance (km) Brightness Sun altitude
Rises 01:07:31 0° 320° (NW) 3,959 7.0 -16.6°
Reaches altitude 10° 01:10:09 10° 319° (NW) 3,032 6.3 -16.4°
Maximum altitude 01:17:25 73° 236° (WSW) 1,235 3.8 -15.8°
Drops below altitude 10° 01:25:01 10° 154° (SSE) 3,163 5.9 -15.1°
Sets 01:27:49 0° 152° (SSE) 4,139 6.5 -14.8°
